Volver al catálogo

FENGYUN 1C DEB

ActivoSSO
NORAD 33658·DEBRIS·🇨🇳 China

Lanzado May 10, 1999 desde Taiyuan Satellite Launch Center

Loading…

Próximos Pases (próximas 24 horas)

TLE

ActualizadoSource: Space-Track

Época: Sep 14, 2026, 21:07 UTC

1 33658U 99025DET 26257.88015622  .00002108  00000-0  20855-2 0  9997
2 33658  99.5806  51.6227 0281106 195.7519 163.4742 13.63555849619015

Sigue FENGYUN 1C DEB en tiempo real con AllMySat

Download on the App Store